Tracking 19489 objects as of 22-Jan-2019
HD Live streaming from Space Station
objects crossing your sky now

QBITO

Track QBITO now!
10-day predictions
QBITO is classified as:


NORAD ID: 42728
Int'l Code: 1998-067MH
Perigee: 282.6 km
Apogee: 286.8 km
Inclination: 51.6 °
Period: 90.1 minutes
Semi major axis: 6655 km
RCS: Unknown
Launch date: November 20, 1998
Source: Spain (SPN)
Launch site: TYURATAM MISSILE AND SPACE COMPLEX (TTMTR)

Uplink (MHz):
Downlink (MHz): 436.810
Beacon (MHz):
Mode: 9600bps GFSK
Call sign:
Status: Inactive

aabbcc
Your satellite tracking list
Your tracking list is empty




NASA's NSSDC Master Catalog

Two Line Element Set (TLE):
1 42728U 98067MH  19021.83088155  .00178256  24242-4  36739-3 0  9992
2 42728  51.6285 302.3315 0003198 141.0229 219.1011 15.98872621 94938
Source of the keplerian elements: AMSAT